Precipitable_Water
1.60 1.64 1.70 1.72 1.78 1.80 1.79 1.81 1.78 1.82 1.78 1.77 1.72 1.67 1.66 1.69 1.68 1.67 1.66 1.66 1.69 1.65 1.64 1.70 1.67 1.59 1.46 1.39 1.32 1.36 1.24 1.22 1.08 1.02 1.22 1.34 1.45 1.42 1.27 1.29 1.36 1.54 1.68 1.75 1.80 1.82 1.88 1.89 1.86 1.84 1.83 1.77 1.76 1.75 1.69 1.63 1.60 1.50 1.44 1.42 1.45 1.49 1.51 1.54 1.57 1.63 1.68 1.67 1.66 1.62 1.59 1.55 1.51 1.46 1.40 1.38 1.42 1.49 1.56 1.61 1.64 1.67 1.69 1.70 1.72
1.60 1.68 1.65 1.69 1.76 1.78 1.76 1.77 1.80 1.73 1.79 1.77 1.75 1.68 1.65 1.64 1.65 1.64 1.65 1.65 1.66 1.65 1.62 1.65 1.61 1.52 1.45 1.38 1.34 1.32 1.29 1.15 1.01 0.94 1.19 1.31 1.38 1.50 1.19 1.24 1.34 1.48 1.70 1.73 1.76 1.81 1.83 1.85 1.83 1.79 1.81 1.79 1.77 1.76 1.74 1.71 1.70 1.62 1.56 1.48 1.46 1.48 1.48 1.48 1.51 1.54 1.59 1.64 1.67 1.69 1.69 1.66 1.61 1.58 1.51 1.46 1.47 1.51 1.57 1.62 1.65 1.68 1.68 1.68 1.68
1.67 1.66 1.66 1.71 1.74 1.74 1.76 1.79 1.76 1.79 1.77 1.78 1.75 1.69 1.67 1.65 1.63 1.66 1.67 1.66 1.63 1.65 1.62 1.61 1.56 1.52 1.43 1.35 1.32 1.33 1.26 1.16 1.04 1.08 1.26 1.32 1.43 1.50 1.43 1.25 1.31 1.43 1.61 1.71 1.73 1.75 1.78 1.79 1.80 1.76 1.77 1.78 1.79 1.78 1.75 1.73 1.72 1.70 1.71 1.64 1.57 1.49 1.50 1.54 1.57 1.58 1.59 1.62 1.66 1.67 1.70 1.69 1.71 1.69 1.65 1.60 1.59 1.59 1.61 1.64 1.67 1.68 1.68 1.68 1.67
1.67 1.67 1.69 1.71 1.74 1.75 1.76 1.74 1.75 1.74 1.78 1.77 1.75 1.75 1.74 1.73 1.69 1.67 1.66 1.64 1.65 1.67 1.64 1.63 1.54 1.47 1.41 1.36 1.31 1.30 1.27 1.10 0.95 1.13 1.15 1.30 1.44 1.42 1.53 1.60 1.38 1.44 1.61 1.65 1.67 1.72 1.75 1.75 1.76 1.77 1.76 1.77 1.76 1.77 1.75 1.74 1.77 1.79 1.82 1.78 1.72 1.62 1.54 1.53 1.55 1.58 1.59 1.60 1.62 1.65 1.66 1.69 1.67 1.68 1.69 1.70 1.68 1.67 1.66 1.65 1.64 1.65 1.67 1.68 1.69
1.62 1.63 1.66 1.70 1.73 1.72 1.74 1.74 1.75 1.79 1.77 1.75 1.71 1.74 1.78 1.77 1.77 1.68 1.67 1.65 1.63 1.62 1.63 1.60 1.46 1.45 1.41 1.37 1.26 1.26 1.22 1.03 0.97 1.11 1.27 1.32 1.42 1.43 1.45 1.61 1.61 1.53 1.54 1.61 1.62 1.65 1.73 1.77 1.76 1.75 1.74 1.73 1.74 1.75 1.77 1.78 1.80 1.80 1.82 1.82 1.82 1.81 1.73 1.68 1.64 1.63 1.63 1.61 1.62 1.67 1.69 1.67 1.69 1.72 1.73 1.74 1.74 1.75 1.74 1.72 1.69 1.68 1.68 1.68 1.70
1.62 1.63 1.66 1.71 1.71 1.71 1.70 1.72 1.77 1.76 1.75 1.74 1.75 1.76 1.73 1.72 1.69 1.64 1.58 1.57 1.57 1.55 1.51 1.44 1.46 1.43 1.40 1.31 1.26 1.26 1.11 0.95 0.97 1.16 1.30 1.41 1.43 1.38 1.40 1.49 1.71 1.68 1.59 1.59 1.59 1.64 1.71 1.71 1.74 1.72 1.69 1.69 1.70 1.72 1.78 1.82 1.82 1.80 1.82 1.83 1.83 1.82 1.81 1.79 1.77 1.73 1.69 1.69 1.70 1.72 1.70 1.69 1.68 1.68 1.69 1.70 1.71 1.74 1.78 1.78 1.75 1.72 1.68 1.63 1.63
1.61 1.63 1.68 1.71 1.71 1.70 1.70 1.71 1.79 1.76 1.76 1.77 1.71 1.76 1.73 1.69 1.64 1.53 1.55 1.56 1.54 1.50 1.46 1.39 1.36 1.37 1.36 1.32 1.28 1.25 1.08 0.94 0.98 1.23 1.35 1.50 1.42 1.44 1.39 1.40 1.54 1.72 1.75 1.69 1.56 1.57 1.68 1.71 1.71 1.68 1.67 1.69 1.72 1.82 1.84 1.82 1.83 1.80 1.79 1.80 1.78 1.81 1.78 1.76 1.77 1.77 1.74 1.71 1.70 1.72 1.75 1.76 1.76 1.73 1.71 1.69 1.66 1.63 1.63 1.65 1.69 1.70 1.68 1.66 1.64
1.62 1.63 1.62 1.68 1.69 1.69 1.71 1.77 1.77 1.76 1.78 1.75 1.71 1.71 1.74 1.62 1.61 1.54 1.47 1.49 1.48 1.48 1.44 1.38 1.31 1.36 1.39 1.29 1.23 1.17 1.02 0.92 1.12 1.28 1.37 1.41 1.43 1.46 1.50 1.46 1.45 1.59 1.55 1.62 1.72 1.68 1.60 1.66 1.70 1.70 1.69 1.67 1.72 1.85 1.80 1.76 1.77 1.75 1.76 1.76 1.75 1.76 1.76 1.75 1.72 1.72 1.72 1.71 1.71 1.71 1.71 1.73 1.76 1.77 1.77 1.75 1.75 1.76 1.75 1.71 1.69 1.69 1.71 1.71 1.67
1.62 1.64 1.60 1.61 1.66 1.68 1.70 1.74 1.80 1.77 1.74 1.72 1.70 1.73 1.69 1.64 1.58 1.57 1.49 1.46 1.49 1.45 1.39 1.35 1.31 1.41 1.40 1.30 1.21 1.10 0.99 0.99 1.16 1.30 1.37 1.40 1.39 1.57 1.58 1.54 1.46 1.49 1.65 1.58 1.65 1.71 1.54 1.61 1.65 1.68 1.66 1.67 1.71 1.74 1.73 1.72 1.75 1.76 1.71 1.72 1.74 1.72 1.71 1.71 1.71 1.71 1.71 1.71 1.71 1.71 1.71 1.70 1.71 1.72 1.74 1.77 1.77 1.78 1.79 1.80 1.78 1.78 1.81 1.82 1.82
1.61 1.64 1.61 1.63 1.69 1.72 1.76 1.82 1.79 1.78 1.74 1.73 1.72 1.74 1.71 1.61 1.57 1.56 1.55 1.52 1.48 1.43 1.36 1.31 1.32 1.30 1.33 1.29 1.22 1.13 1.01 1.07 1.25 1.33 1.39 1.35 1.40 1.46 1.51 1.62 1.59 1.55 1.62 1.62 1.67 1.65 1.59 1.50 1.47 1.57 1.64 1.68 1.64 1.67 1.66 1.68 1.71 1.71 1.71 1.76 1.74 1.68 1.66 1.69 1.73 1.72 1.71 1.71 1.71 1.72 1.73 1.74 1.72 1.71 1.72 1.72 1.74 1.76 1.78 1.80 1.81 1.83 1.84 1.85 1.85
1.61 1.64 1.64 1.67 1.68 1.72 1.73 1.79 1.79 1.78 1.73 1.70 1.72 1.72 1.64 1.59 1.50 1.53 1.53 1.55 1.47 1.44 1.35 1.26 1.22 1.21 1.30 1.31 1.28 1.12 1.12 1.18 1.29 1.30 1.38 1.43 1.43 1.35 1.43 1.39 1.52 1.49 1.45 1.53 1.62 1.63 1.57 1.65 1.62 1.68 1.65 1.64 1.64 1.68 1.65 1.67 1.69 1.71 1.71 1.71 1.71 1.70 1.70 1.71 1.73 1.75 1.77 1.78 1.79 1.78 1.77 1.75 1.74 1.74 1.73 1.72 1.70 1.70 1.72 1.74 1.77 1.81 1.85 1.87 1.88
1.60 1.67 1.70 1.70 1.71 1.74 1.75 1.80 1.79 1.77 1.71 1.66 1.69 1.69 1.61 1.54 1.48 1.52 1.51 1.55 1.53 1.46 1.38 1.20 1.19 1.14 1.25 1.33 1.32 1.25 1.16 1.22 1.29 1.31 1.33 1.44 1.42 1.43 1.42 1.37 1.34 1.33 1.33 1.32 1.36 1.53 1.56 1.52 1.52 1.63 1.65 1.69 1.58 1.56 1.59 1.59 1.59 1.64 1.67 1.69 1.72 1.74 1.75 1.76 1.77 1.78 1.78 1.78 1.81 1.84 1.84 1.80 1.77 1.76 1.76 1.75 1.72 1.70 1.70 1.71 1.72 1.76 1.80 1.83 1.85
1.59 1.69 1.71 1.72 1.71 1.75 1.77 1.78 1.80 1.78 1.72 1.68 1.71 1.73 1.63 1.58 1.56 1.52 1.45 1.39 1.46 1.49 1.35 1.21 1.13 1.12 1.22 1.31 1.27 1.30 1.28 1.27 1.29 1.26 1.30 1.45 1.43 1.42 1.36 1.30 1.25 1.26 1.21 1.20 1.25 1.40 1.48 1.47 1.53 1.50 1.65 1.60 1.60 1.51 1.49 1.54 1.58 1.64 1.61 1.63 1.65 1.67 1.70 1.72 1.72 1.72 1.73 1.75 1.79 1.83 1.82 1.83 1.81 1.81 1.78 1.75 1.74 1.73 1.73 1.72 1.70 1.70 1.72 1.75 1.77
1.57 1.67 1.72 1.72 1.71 1.72 1.74 1.74 1.76 1.76 1.74 1.75 1.71 1.68 1.59 1.55 1.55 1.49 1.53 1.38 1.37 1.44 1.35 1.16 1.13 1.14 1.07 1.11 1.20 1.24 1.34 1.32 1.27 1.27 1.31 1.41 1.41 1.40 1.34 1.30 1.23 1.18 1.21 1.21 1.22 1.28 1.23 1.28 1.37 1.45 1.44 1.52 1.58 1.59 1.50 1.45 1.50 1.50 1.52 1.56 1.58 1.62 1.62 1.62 1.61 1.62 1.65 1.68 1.72 1.74 1.73 1.76 1.81 1.82 1.80 1.75 1.76 1.76 1.73 1.72 1.70 1.69 1.68 1.69 1.70
1.57 1.65 1.69 1.69 1.69 1.71 1.73 1.77 1.76 1.77 1.71 1.67 1.68 1.62 1.57 1.52 1.48 1.37 1.38 1.47 1.42 1.42 1.30 1.22 1.17 1.16 1.20 1.12 1.07 1.17 1.14 1.21 1.22 1.25 1.33 1.36 1.40 1.40 1.36 1.36 1.23 1.20 1.23 1.23 1.24 1.27 1.22 1.21 1.18 1.20 1.24 1.29 1.44 1.49 1.49 1.48 1.50 1.45 1.44 1.45 1.46 1.47 1.50 1.50 1.53 1.57 1.62 1.61 1.61 1.61 1.64 1.66 1.69 1.73 1.74 1.74 1.70 1.64 1.61 1.59 1.58 1.58 1.59 1.59 1.59
1.55 1.63 1.65 1.67 1.70 1.68 1.72 1.76 1.79 1.78 1.72 1.66 1.63 1.60 1.60 1.52 1.48 1.43 1.39 1.34 1.45 1.35 1.31 1.07 1.19 1.05 0.95 1.17 1.05 1.09 1.00 1.06 1.13 1.21 1.34 1.32 1.34 1.36 1.33 1.30 1.29 1.19 1.17 1.17 1.15 1.20 1.24 1.22 1.17 1.13 1.16 1.17 1.19 1.29 1.52 1.40 1.26 1.19 1.17 1.19 1.25 1.26 1.27 1.28 1.31 1.38 1.42 1.40 1.40 1.42 1.48 1.48 1.47 1.47 1.46 1.44 1.43 1.42 1.38 1.32 1.29 1.31 1.33 1.34 1.35
1.54 1.60 1.62 1.66 1.69 1.69 1.71 1.78 1.79 1.78 1.74 1.67 1.63 1.61 1.61 1.56 1.50 1.44 1.42 1.40 1.41 1.33 1.22 1.18 1.07 1.25 1.19 0.95 0.89 0.91 1.04 1.02 1.15 1.10 1.27 1.27 1.29 1.30 1.30 1.22 1.28 1.22 1.15 1.10 1.13 1.19 1.22 1.26 1.22 1.19 1.18 1.18 1.19 1.18 1.24 1.30 1.25 1.13 0.95 0.90 0.94 1.02 1.08 1.11 1.11 1.09 1.09 1.08 1.08 1.07 1.05 1.07 1.08 1.09 1.09 1.07 1.06 1.02 1.01 0.99 0.98 0.97 0.96 0.97 0.97
1.51 1.57 1.60 1.63 1.66 1.68 1.70 1.73 1.79 1.78 1.72 1.67 1.66 1.65 1.56 1.50 1.52 1.48 1.44 1.47 1.42 1.29 1.13 1.17 1.13 1.10 1.22 1.26 1.28 1.14 0.96 1.03 1.14 0.98 1.15 1.29 1.28 1.27 1.30 1.30 1.30 1.25 1.19 1.17 1.14 1.19 1.21 1.24 1.22 1.24 1.23 1.21 1.20 1.20 1.19 1.18 1.13 1.11 1.03 0.86 0.85 0.91 0.93 0.93 0.96 0.97 0.97 0.94 0.93 0.85 0.84 0.85 0.87 0.91 0.88 0.85 0.87 0.88 0.86 0.87 0.85 0.82 0.80 0.78 0.80
1.44 1.51 1.55 1.59 1.60 1.67 1.69 1.70 1.75 1.78 1.76 1.69 1.61 1.60 1.58 1.54 1.54 1.51 1.48 1.48 1.42 1.24 1.15 1.16 1.13 1.13 1.15 1.17 1.16 1.20 1.22 1.03 1.01 1.06 0.93 1.07 1.23 1.30 1.32 1.34 1.35 1.30 1.25 1.22 1.21 1.16 1.18 1.22 1.25 1.25 1.29 1.25 1.24 1.24 1.23 1.19 1.18 1.13 1.05 0.96 0.93 0.91 0.92 0.93 0.88 0.88 0.87 0.87 0.83 0.84 0.82 0.82 0.80 0.80 0.80 0.79 0.85 0.85 0.84 0.83 0.81 0.79 0.78 0.77 0.76
1.36 1.45 1.50 1.52 1.54 1.58 1.66 1.69 1.70 1.72 1.75 1.69 1.63 1.64 1.62 1.57 1.57 1.55 1.51 1.48 1.45 1.31 1.20 1.18 1.06 1.06 1.18 1.14 1.13 1.19 1.21 1.26 1.25 1.12 1.11 1.02 1.09 1.23 1.23 1.30 1.33 1.36 1.34 1.31 1.27 1.28 1.21 1.20 1.26 1.26 1.30 1.33 1.33 1.28 1.29 1.29 1.28 1.25 1.19 1.09 1.10 1.06 1.03 1.04 1.03 0.98 0.99 1.00 0.97 0.96 0.99 1.00 1.02 1.01 1.00 1.01 0.98 0.96 0.95 0.92 0.91 0.90 0.88 0.87 0.85
1.30 1.36 1.45 1.47 1.51 1.54 1.60 1.65 1.68 1.68 1.71 1.69 1.69 1.68 1.59 1.53 1.52 1.48 1.44 1.46 1.46 1.44 1.28 1.17 1.12 1.20 1.14 1.11 1.20 1.24 1.20 1.16 1.24 1.17 1.09 1.01 1.06 1.09 1.16 1.26 1.25 1.27 1.33 1.35 1.34 1.35 1.29 1.30 1.30 1.29 1.33 1.35 1.37 1.38 1.37 1.38 1.38 1.36 1.26 1.20 1.20 1.15 1.13 1.08 1.07 1.07 1.08 1.08 1.11 1.12 1.12 1.11 1.10 1.11 1.11 1.10 1.10 1.08 1.06 1.04 1.03 1.03 1.02 1.00 0.99
1.31 1.30 1.39 1.45 1.47 1.52 1.55 1.59 1.65 1.67 1.67 1.66 1.69 1.67 1.60 1.55 1.52 1.49 1.48 1.43 1.50 1.45 1.32 1.26 1.14 1.22 1.25 1.21 1.09 1.13 1.17 1.17 1.14 1.11 1.10 1.08 1.08 1.10 1.10 1.13 1.11 1.27 1.33 1.34 1.33 1.37 1.39 1.39 1.38 1.38 1.39 1.38 1.40 1.41 1.40 1.40 1.45 1.42 1.36 1.21 1.20 1.19 1.17 1.15 1.10 1.07 1.07 1.08 1.07 1.07 1.09 1.10 1.11 1.11 1.10 1.09 1.09 1.10 1.09 1.07 1.06 1.06 1.06 1.05 1.03
1.33 1.34 1.34 1.41 1.45 1.48 1.51 1.57 1.64 1.68 1.66 1.63 1.63 1.64 1.63 1.56 1.53 1.51 1.47 1.44 1.46 1.45 1.34 1.30 1.23 1.16 1.23 1.22 1.18 1.16 1.13 1.09 1.11 1.11 1.07 1.04 0.98 0.98 1.08 1.12 1.12 1.15 1.29 1.30 1.28 1.34 1.37 1.39 1.35 1.37 1.40 1.39 1.41 1.41 1.39 1.38 1.36 1.30 1.27 1.22 1.20 1.19 1.15 1.12 1.09 1.06 1.04 1.02 1.01 1.04 1.04 1.04 1.05 1.05 1.06 1.06 1.06 1.06 1.08 1.09 1.10 1.10 1.11 1.11 1.10
1.28 1.31 1.36 1.39 1.42 1.45 1.50 1.54 1.58 1.62 1.63 1.64 1.64 1.65 1.68 1.59 1.55 1.51 1.47 1.49 1.49 1.46 1.36 1.28 1.22 1.19 1.17 1.23 1.20 1.23 1.25 1.17 1.19 1.17 1.07 1.14 1.12 1.13 1.13 1.18 1.14 1.14 1.23 1.25 1.29 1.27 1.31 1.35 1.38 1.37 1.38 1.39 1.41 1.39 1.37 1.33 1.34 1.32 1.26 1.27 1.21 1.18 1.16 1.14 1.13 1.14 1.15 1.15 1.15 1.16 1.17 1.18 1.19 1.19 1.18 1.17 1.17 1.17 1.17 1.18 1.19 1.20 1.20 1.19 1.18
1.19 1.21 1.31 1.38 1.42 1.43 1.46 1.47 1.54 1.58 1.62 1.64 1.63 1.65 1.65 1.59 1.56 1.51 1.48 1.44 1.44 1.43 1.33 1.29 1.24 1.18 1.15 1.23 1.29 1.27 1.29 1.30 1.29 1.28 1.27 1.21 1.14 1.06 1.14 1.16 1.00 1.07 1.18 1.17 1.15 1.27 1.30 1.30 1.33 1.36 1.36 1.39 1.40 1.45 1.44 1.36 1.35 1.36 1.30 1.27 1.22 1.20 1.18 1.18 1.19 1.20 1.22 1.23 1.24 1.25 1.24 1.24 1.24 1.24 1.23 1.22 1.22 1.22 1.22 1.21 1.21 1.22 1.23 1.24 1.23
1.11 1.16 1.26 1.39 1.43 1.47 1.51 1.50 1.53 1.57 1.60 1.61 1.62 1.63 1.61 1.57 1.55 1.52 1.48 1.46 1.46 1.41 1.37 1.34 1.28 1.22 1.25 1.24 1.25 1.25 1.31 1.37 1.32 1.28 1.28 1.21 1.15 1.10 1.10 1.07 1.04 1.04 1.17 1.16 1.21 1.07 1.20 1.30 1.32 1.33 1.35 1.34 1.35 1.36 1.39 1.38 1.35 1.40 1.30 1.25 1.27 1.23 1.21 1.21 1.23 1.25 1.26 1.27 1.27 1.27 1.27 1.28 1.28 1.29 1.30 1.30 1.30 1.30 1.30 1.30 1.29 1.28 1.26 1.26 1.27
1.11 1.17 1.27 1.33 1.40 1.46 1.51 1.52 1.54 1.56 1.59 1.60 1.61 1.60 1.60 1.55 1.54 1.54 1.52 1.50 1.44 1.41 1.38 1.35 1.27 1.24 1.26 1.25 1.27 1.30 1.31 1.38 1.41 1.35 1.34 1.34 1.28 1.23 1.16 1.05 1.09 1.13 1.11 1.18 1.15 1.10 1.13 1.22 1.28 1.27 1.31 1.35 1.31 1.32 1.35 1.34 1.35 1.30 1.24 1.25 1.35 1.30 1.24 1.23 1.25 1.26 1.27 1.25 1.24 1.25 1.26 1.27 1.29 1.31 1.32 1.33 1.34 1.34 1.34 1.33 1.32 1.31 1.31 1.30 1.30
1.20 1.19 1.25 1.28 1.33 1.39 1.46 1.49 1.54 1.57 1.59 1.60 1.61 1.59 1.58 1.52 1.52 1.51 1.48 1.52 1.42 1.39 1.37 1.36 1.29 1.30 1.30 1.33 1.31 1.29 1.35 1.35 1.37 1.39 1.36 1.37 1.35 1.33 1.25 1.14 1.03 1.01 1.09 1.04 1.08 1.12 1.18 1.11 1.21 1.23 1.28 1.28 1.29 1.28 1.30 1.25 1.24 1.27 1.23 1.32 1.38 1.42 1.32 1.27 1.26 1.26 1.25 1.24 1.24 1.26 1.26 1.26 1.26 1.26 1.27 1.28 1.29 1.30 1.30 1.32 1.33 1.35 1.37 1.37 1.36
1.20 1.23 1.22 1.26 1.29 1.34 1.37 1.44 1.51 1.56 1.59 1.59 1.59 1.60 1.57 1.49 1.46 1.48 1.45 1.50 1.43 1.39 1.39 1.34 1.31 1.33 1.33 1.35 1.34 1.31 1.37 1.38 1.37 1.38 1.41 1.39 1.37 1.35 1.32 1.23 1.20 1.01 0.97 0.97 1.04 1.03 1.11 1.12 1.04 1.36 1.28 1.24 1.23 1.22 1.23 1.25 1.29 1.24 1.28 1.30 1.37 1.41 1.43 1.29 1.25 1.25 1.24 1.23 1.25 1.26 1.26 1.26 1.24 1.22 1.22 1.22 1.24 1.26 1.29 1.31 1.33 1.35 1.37 1.39 1.41
1.23 1.25 1.26 1.25 1.27 1.30 1.33 1.38 1.47 1.54 1.56 1.59 1.59 1.60 1.59 1.49 1.45 1.46 1.47 1.50 1.44 1.42 1.40 1.37 1.30 1.30 1.34 1.36 1.36 1.33 1.35 1.37 1.34 1.37 1.42 1.40 1.38 1.37 1.34 1.30 1.27 1.14 1.10 0.97 0.99 1.08 1.07 1.15 1.11 1.19 1.33 1.26 1.26 1.23 1.25 1.29 1.29 1.19 1.26 1.30 1.32 1.41 1.32 1.24 1.21 1.20 1.18 1.18 1.20 1.21 1.22 1.23 1.21 1.20 1.20 1.21 1.23 1.25 1.27 1.29 1.32 1.34 1.36 1.38 1.39
1.26 1.25 1.25 1.24 1.25 1.29 1.31 1.36 1.42 1.48 1.56 1.56 1.58 1.58 1.60 1.51 1.43 1.41 1.46 1.48 1.45 1.39 1.41 1.37 1.31 1.30 1.30 1.31 1.37 1.34 1.38 1.35 1.36 1.37 1.43 1.41 1.40 1.41 1.40 1.38 1.34 1.24 1.16 1.13 1.01 1.14 1.14 1.07 1.10 1.13 1.17 1.22 1.23 1.23 1.26 1.29 1.31 1.24 1.29 1.31 1.34 1.30 1.21 1.24 1.21 1.20 1.20 1.19 1.20 1.21 1.21 1.20 1.20 1.20 1.21 1.22 1.23 1.25 1.26 1.29 1.31 1.34 1.36 1.38 1.39
1.30 1.30 1.26 1.23 1.25 1.25 1.30 1.33 1.37 1.44 1.49 1.54 1.55 1.54 1.57 1.55 1.45 1.37 1.41 1.45 1.45 1.39 1.39 1.39 1.31 1.31 1.31 1.28 1.32 1.31 1.34 1.33 1.31 1.38 1.43 1.43 1.45 1.43 1.40 1.39 1.38 1.31 1.27 1.19 1.06 1.06 1.21 1.14 1.15 1.17 1.11 1.19 1.20 1.18 1.22 1.27 1.38 1.25 1.31 1.33 1.40 1.27 1.27 1.40 1.34 1.28 1.25 1.23 1.23 1.22 1.21 1.20 1.20 1.20 1.21 1.22 1.24 1.26 1.27 1.29 1.31 1.33 1.34 1.33 1.32
1.31 1.30 1.28 1.25 1.26 1.26 1.27 1.31 1.34 1.38 1.43 1.48 1.53 1.51 1.52 1.54 1.47 1.39 1.38 1.41 1.39 1.40 1.39 1.35 1.32 1.30 1.31 1.29 1.31 1.33 1.36 1.30 1.30 1.36 1.41 1.42 1.44 1.44 1.42 1.40 1.35 1.36 1.30 1.22 1.13 1.11 1.19 1.25 1.18 1.15 1.17 1.14 1.17 1.21 1.21 1.26 1.31 1.35 1.33 1.36 1.38 1.35 1.36 1.35 1.39 1.38 1.32 1.27 1.25 1.23 1.21 1.19 1.18 1.19 1.20 1.21 1.22 1.24 1.26 1.27 1.29 1.28 1.26 1.24 1.22
1.32 1.29 1.30 1.31 1.30 1.29 1.27 1.29 1.32 1.37 1.40 1.45 1.48 1.47 1.45 1.50 1.45 1.42 1.36 1.35 1.37 1.37 1.38 1.32 1.31 1.30 1.31 1.28 1.29 1.33 1.35 1.30 1.30 1.32 1.38 1.43 1.42 1.40 1.41 1.38 1.34 1.36 1.36 1.29 1.21 1.14 1.09 1.21 1.18 1.18 1.17 1.19 1.14 1.25 1.22 1.23 1.29 1.38 1.36 1.36 1.38 1.37 1.34 1.36 1.35 1.44 1.41 1.35 1.26 1.21 1.18 1.17 1.17 1.17 1.16 1.16 1.16 1.18 1.19 1.20 1.19 1.17 1.15 1.14 1.14
1.30 1.30 1.31 1.34 1.34 1.33 1.29 1.28 1.30 1.33 1.38 1.42 1.45 1.44 1.43 1.45 1.42 1.38 1.35 1.34 1.33 1.32 1.32 1.31 1.32 1.32 1.27 1.25 1.25 1.30 1.34 1.29 1.29 1.32 1.38 1.42 1.44 1.41 1.42 1.41 1.36 1.39 1.42 1.34 1.29 1.22 1.19 1.19 1.23 1.17 1.15 1.16 1.13 1.20 1.29 1.31 1.32 1.36 1.34 1.37 1.38 1.41 1.39 1.31 1.28 1.30 1.34 1.31 1.22 1.18 1.16 1.14 1.13 1.11 1.10 1.09 1.10 1.11 1.10 1.09 1.07 1.06 1.06 1.06 1.06
1.27 1.30 1.32 1.35 1.38 1.35 1.31 1.29 1.29 1.29 1.33 1.38 1.43 1.43 1.41 1.42 1.40 1.37 1.37 1.35 1.35 1.34 1.32 1.32 1.32 1.31 1.26 1.22 1.23 1.28 1.31 1.27 1.27 1.29 1.34 1.39 1.41 1.41 1.41 1.45 1.39 1.39 1.45 1.45 1.37 1.29 1.30 1.23 1.26 1.16 1.20 1.17 1.19 1.23 1.31 1.35 1.32 1.38 1.36 1.40 1.39 1.30 1.31 1.34 1.34 1.33 1.36 1.29 1.19 1.14 1.12 1.11 1.09 1.07 1.06 1.06 1.06 1.05 1.04 1.03 1.02 1.03 1.04 1.04 1.03
1.23 1.29 1.30 1.34 1.35 1.35 1.30 1.27 1.26 1.25 1.27 1.33 1.36 1.39 1.41 1.41 1.40 1.39 1.39 1.37 1.35 1.34 1.33 1.33 1.33 1.31 1.27 1.21 1.22 1.26 1.29 1.26 1.26 1.28 1.31 1.35 1.40 1.41 1.38 1.41 1.41 1.39 1.43 1.45 1.42 1.36 1.29 1.24 1.25 1.26 1.24 1.22 1.25 1.27 1.29 1.24 1.32 1.38 1.40 1.32 1.31 1.34 1.37 1.34 1.32 1.34 1.32 1.25 1.21 1.18 1.15 1.12 1.08 1.06 1.04 1.02 0.99 0.97 0.97 0.97 0.97 0.99 0.99 1.00 1.01
1.22 1.25 1.27 1.27 1.29 1.29 1.30 1.29 1.27 1.25 1.26 1.29 1.32 1.34 1.37 1.39 1.39 1.39 1.42 1.40 1.36 1.34 1.34 1.35 1.34 1.32 1.28 1.24 1.24 1.27 1.27 1.24 1.23 1.27 1.30 1.33 1.37 1.37 1.39 1.40 1.39 1.38 1.37 1.40 1.39 1.36 1.30 1.26 1.24 1.22 1.25 1.22 1.24 1.27 1.34 1.30 1.21 1.19 1.27 1.36 1.38 1.35 1.31 1.29 1.28 1.27 1.28 1.27 1.27 1.27 1.21 1.17 1.16 1.12 1.06 0.98 0.93 0.92 0.91 0.91 0.91 0.92 0.91 0.91 0.89
1.25 1.25 1.27 1.27 1.27 1.27 1.29 1.30 1.28 1.27 1.26 1.27 1.29 1.31 1.33 1.36 1.37 1.37 1.38 1.41 1.37 1.34 1.34 1.33 1.34 1.34 1.31 1.29 1.26 1.27 1.27 1.26 1.23 1.25 1.28 1.32 1.33 1.32 1.36 1.38 1.41 1.39 1.36 1.38 1.38 1.33 1.29 1.24 1.26 1.24 1.20 1.26 1.26 1.22 1.38 1.37 1.30 1.22 1.14 1.13 1.15 1.31 1.40 1.36 1.27 1.29 1.27 1.23 1.23 1.19 1.16 1.13 1.07 1.02 1.01 0.95 0.93 0.91 0.87 0.84 0.83 0.81 0.80 0.82 0.83
1.32 1.32 1.31 1.30 1.30 1.30 1.31 1.31 1.30 1.30 1.27 1.25 1.27 1.29 1.29 1.31 1.34 1.37 1.38 1.39 1.37 1.33 1.33 1.32 1.32 1.32 1.33 1.32 1.30 1.30 1.29 1.29 1.25 1.26 1.29 1.26 1.29 1.30 1.38 1.40 1.42 1.40 1.37 1.38 1.37 1.34 1.30 1.27 1.23 1.22 1.23 1.22 1.31 1.33 1.39 1.38 1.25 1.21 1.21 1.16 1.07 1.15 1.24 1.34 1.28 1.21 1.25 1.18 1.10 1.09 1.15 1.09 1.06 1.01 0.96 0.94 0.94 0.93 0.91 0.87 0.87 0.85 0.84 0.85 0.86
1.48 1.45 1.44 1.42 1.38 1.34 1.34 1.33 1.31 1.32 1.29 1.26 1.27 1.27 1.24 1.25 1.30 1.33 1.37 1.38 1.38 1.34 1.31 1.30 1.30 1.30 1.32 1.34 1.34 1.34 1.36 1.32 1.29 1.28 1.29 1.28 1.25 1.26 1.36 1.42 1.40 1.40 1.37 1.38 1.37 1.34 1.32 1.29 1.24 1.25 1.22 1.21 1.22 1.24 1.31 1.30 1.22 1.19 1.27 1.30 1.18 1.17 1.20 1.21 1.31 1.33 1.25 1.13 1.08 1.06 1.04 0.99 0.89 0.89 0.91 0.89 0.90 0.92 0.92 0.91 0.91 0.94 0.92 0.91 0.86
1.56 1.57 1.56 1.56 1.51 1.44 1.38 1.36 1.34 1.31 1.29 1.30 1.27 1.25 1.24 1.23 1.25 1.31 1.37 1.40 1.40 1.37 1.32 1.28 1.28 1.30 1.31 1.32 1.34 1.34 1.38 1.35 1.29 1.27 1.27 1.26 1.24 1.28 1.37 1.42 1.39 1.39 1.38 1.36 1.37 1.37 1.33 1.28 1.24 1.24 1.19 1.17 1.19 1.26 1.26 1.31 1.38 1.38 1.28 1.25 1.14 1.20 1.19 1.15 1.17 1.22 1.27 1.12 1.03 0.95 0.91 0.91 0.85 0.83 0.83 0.80 0.83 0.83 0.81 0.83 0.87 0.86 0.83 0.77 0.69
1.61 1.63 1.63 1.61 1.59 1.59 1.53 1.45 1.38 1.32 1.28 1.27 1.24 1.22 1.21 1.20 1.25 1.29 1.31 1.36 1.40 1.38 1.35 1.29 1.24 1.27 1.30 1.33 1.34 1.35 1.36 1.37 1.34 1.30 1.29 1.27 1.23 1.24 1.34 1.46 1.46 1.42 1.38 1.35 1.36 1.40 1.36 1.30 1.30 1.28 1.22 1.18 1.20 1.27 1.31 1.35 1.35 1.31 1.27 1.27 1.21 1.12 1.05 0.99 0.91 1.03 1.19 1.11 0.95 0.81 0.76 0.82 0.83 0.77 0.77 0.75 0.76 0.77 0.76 0.80 0.77 0.73 0.65 0.60 0.60
1.64 1.67 1.64 1.64 1.65 1.65 1.65 1.60 1.51 1.42 1.33 1.25 1.21 1.19 1.18 1.18 1.19 1.25 1.31 1.34 1.36 1.35 1.34 1.31 1.28 1.27 1.29 1.32 1.35 1.38 1.36 1.38 1.39 1.36 1.34 1.33 1.27 1.23 1.27 1.41 1.46 1.46 1.48 1.45 1.40 1.40 1.41 1.34 1.31 1.31 1.28 1.22 1.23 1.28 1.30 1.30 1.26 1.27 1.26 1.20 1.18 1.09 1.02 0.97 0.94 0.86 1.03 1.04 0.85 0.71 0.66 0.78 0.78 0.70 0.66 0.73 0.76 0.77 0.79 0.76 0.71 0.66 0.59 0.50 0.48
1.67 1.65 1.66 1.68 1.68 1.69 1.66 1.62 1.58 1.55 1.46 1.34 1.23 1.19 1.18 1.17 1.18 1.21 1.28 1.33 1.35 1.34 1.34 1.33 1.31 1.29 1.30 1.32 1.34 1.37 1.39 1.37 1.41 1.44 1.41 1.38 1.32 1.25 1.26 1.36 1.47 1.48 1.46 1.48 1.53 1.53 1.55 1.44 1.36 1.37 1.33 1.31 1.26 1.26 1.27 1.25 1.26 1.15 1.17 1.12 1.11 1.09 1.05 0.96 0.90 0.90 0.95 0.96 0.75 0.68 0.64 0.64 0.64 0.62 0.60 0.66 0.70 0.75 0.77 0.77 0.70 0.61 0.49 0.48 0.49
1.64 1.66 1.69 1.68 1.72 1.72 1.67 1.65 1.62 1.60 1.54 1.46 1.31 1.22 1.20 1.20 1.20 1.22 1.25 1.32 1.35 1.37 1.38 1.38 1.38 1.37 1.34 1.33 1.33 1.34 1.39 1.39 1.41 1.45 1.48 1.45 1.40 1.29 1.26 1.35 1.44 1.47 1.47 1.48 1.50 1.51 1.54 1.53 1.51 1.41 1.44 1.42 1.30 1.30 1.33 1.32 1.22 1.13 1.12 1.09 1.10 1.05 0.99 0.93 0.97 0.91 0.85 0.82 0.73 0.68 0.57 0.59 0.58 0.53 0.52 0.60 0.68 0.69 0.70 0.69 0.59 0.48 0.45 0.48 0.51
1.61 1.61 1.68 1.62 1.69 1.72 1.69 1.67 1.64 1.60 1.58 1.53 1.40 1.29 1.23 1.21 1.22 1.24 1.27 1.32 1.34 1.35 1.39 1.42 1.43 1.41 1.41 1.41 1.38 1.37 1.39 1.40 1.42 1.46 1.49 1.49 1.46 1.37 1.30 1.34 1.43 1.46 1.48 1.48 1.49 1.50 1.50 1.50 1.50 1.49 1.48 1.50 1.44 1.38 1.38 1.36 1.30 1.25 1.21 1.15 1.12 1.06 0.99 0.95 0.87 0.88 0.81 0.87 0.80 0.71 0.52 0.53 0.58 0.53 0.53 0.58 0.61 0.60 0.58 0.54 0.51 0.46 0.42 0.42 0.42
1.66 1.69 1.70 1.66 1.69 1.70 1.70 1.69 1.63 1.57 1.56 1.56 1.47 1.37 1.28 1.25 1.25 1.25 1.28 1.29 1.29 1.29 1.33 1.40 1.45 1.45 1.45 1.46 1.43 1.42 1.42 1.43 1.45 1.46 1.51 1.55 1.49 1.44 1.37 1.37 1.41 1.45 1.49 1.55 1.56 1.56 1.55 1.54 1.53 1.51 1.52 1.53 1.49 1.42 1.40 1.36 1.34 1.31 1.26 1.16 1.08 0.94 0.85 0.82 0.74 0.72 0.63 0.78 0.80 0.64 0.55 0.54 0.58 0.52 0.54 0.58 0.57 0.54 0.52 0.47 0.49 0.47 0.44 0.40 0.38
1.62 1.63 1.59 1.67 1.72 1.69 1.69 1.67 1.64 1.62 1.59 1.58 1.50 1.42 1.33 1.27 1.24 1.22 1.23 1.26 1.27 1.26 1.27 1.35 1.39 1.42 1.46 1.48 1.49 1.47 1.47 1.46 1.48 1.48 1.51 1.54 1.50 1.47 1.44 1.40 1.42 1.44 1.46 1.61 1.61 1.56 1.57 1.60 1.60 1.59 1.58 1.54 1.47 1.40 1.34 1.30 1.28 1.27 1.15 1.00 0.93 0.91 0.86 0.74 0.67 0.60 0.60 0.64 0.66 0.63 0.55 0.48 0.54 0.54 0.51 0.52 0.51 0.46 0.47 0.50 0.53 0.51 0.46 0.42 0.43
1.57 1.60 1.66 1.68 1.70 1.72 1.68 1.67 1.67 1.65 1.66 1.65 1.54 1.45 1.41 1.34 1.26 1.21 1.21 1.22 1.23 1.25 1.26 1.31 1.34 1.36 1.44 1.49 1.50 1.50 1.50 1.51 1.50 1.49 1.51 1.52 1.50 1.50 1.47 1.42 1.43 1.43 1.48 1.64 1.67 1.66 1.65 1.63 1.61 1.59 1.56 1.53 1.47 1.39 1.32 1.28 1.24 1.21 1.04 0.88 0.89 0.87 0.79 0.69 0.57 0.56 0.59 0.60 0.61 0.63 0.53 0.51 0.53 0.54 0.50 0.49 0.45 0.47 0.48 0.49 0.49 0.47 0.51 0.52 0.50
1.64 1.69 1.72 1.69 1.68 1.70 1.74 1.71 1.71 1.69 1.70 1.71 1.68 1.58 1.47 1.40 1.34 1.31 1.27 1.23 1.21 1.24 1.26 1.27 1.32 1.35 1.40 1.48 1.47 1.50 1.54 1.57 1.52 1.50 1.50 1.52 1.53 1.53 1.49 1.43 1.43 1.46 1.54 1.63 1.64 1.64 1.62 1.59 1.57 1.56 1.53 1.51 1.47 1.41 1.33 1.26 1.21 1.12 1.02 0.93 0.91 0.83 0.70 0.63 0.57 0.56 0.53 0.58 0.67 0.66 0.52 0.53 0.48 0.48 0.46 0.41 0.37 0.38 0.43 0.48 0.49 0.51 0.53 0.53 0.53
Wind_Speed
5 5 5 5 5 4 4 4 4 4 3 3 3 3 3 3 3 4 4 4 4 5 5 5 4 4 5 5 4 4 4 5 5 3 3 3 3 3 3 3 3 3 3 3 3 3 3 2 2 2 2 2 2 2 2 2 2 2 2 3 4 4 4 5 5 5 6 6 6 6 6 6 6 6 6 6 6 6 6 6 6 6 6 6 6
5 5 5 5 4 4 4 3 3 3 3 3 3 3 3 3 4 4 4 4 4 5 5 4 4 4 4 4 4 4 4 4 4 3 3 3 3 3 3 2 2 3 2 3 3 3 3 2 2 2 2 2 2 2 2 2 2 2 2 2 3 4 4 4 5 5 5 6 7 7 7 7 7 7 7 7 7 7 7 7 7 7 7 7 7
5 5 5 4 4 3 3 3 3 3 3 3 3 3 4 4 4 4 4 4 4 5 5 4 4 4 4 4 4 4 4 5 4 3 3 3 3 3 2 2 2 2 2 2 3 3 2 2 2 2 2 2 2 2 2 2 2 2 2 2 2 3 4 4 5 5 6 6 6 7 7 7 8 8 8 8 8 8 8 8 8 8 8 8 8
5 5 5 4 3 3 2 2 2 3 3 3 3 3 4 4 4 4 5 5 5 5 5 5 4 4 4 4 4 3 4 4 4 3 3 3 2 2 2 2 2 2 2 2 2 3 2 2 2 1 1 1 1 2 2 2 2 3 3 2 2 3 3 4 4 5 5 6 6 7 7 7 8 8 8 9 9 9 9 9 9 9 9 9 9
5 5 4 4 3 2 2 2 2 2 2 3 3 4 4 4 5 5 5 5 5 5 5 5 5 4 4 4 4 3 3 3 3 2 3 3 2 2 2 2 2 1 1 1 1 2 2 2 2 1 1 1 2 2 2 2 2 2 3 3 3 3 4 4 4 5 5 6 6 7 7 7 8 8 8 9 9 10 10 10 11 11 10 10 10
5 5 4 3 2 2 1 1 2 2 2 3 3 4 4 4 5 5 5 5 5 5 5 6 5 4 4 4 4 3 3 3 2 2 3 3 2 2 2 1 1 1 1 1 1 1 2 3 3 2 2 2 2 2 3 3 3 3 3 3 4 4 5 5 5 5 6 6 6 7 7 7 8 8 9 9 9 10 10 11 11 11 11 11 11
6 5 4 3 2 1 1 1 1 2 2 3 3 3 4 4 5 5 5 5 5 5 5 6 5 5 4 4 3 3 3 2 1 2 2 2 2 2 2 1 1 1 1 1 0 0 1 2 3 3 3 2 3 3 3 3 4 4 4 4 4 5 5 6 6 6 6 6 7 7 7 8 8 9 9 9 9 10 10 11 11 12 12 12 12
6 5 4 3 2 1 0 1 1 2 2 3 3 3 4 4 5 5 5 5 5 5 5 5 5 4 4 4 3 3 2 1 1 1 2 2 2 2 2 1 1 1 1 1 1 0 0 1 2 2 3 3 3 4 4 4 4 5 5 5 6 6 6 6 7 7 7 8 8 8 8 8 9 9 9 10 10 10 10 11 11 12 12 12 13
6 5 4 3 2 1 0 0 1 2 2 3 3 3 4 4 4 4 5 5 5 5 5 5 5 4 4 4 3 3 2 1 1 1 1 1 2 2 2 2 1 1 1 1 1 1 1 1 2 2 2 3 3 4 5 5 5 6 6 6 7 7 7 7 8 8 9 9 9 9 9 9 10 10 10 10 11 11 11 12 12 12 12 13 13
6 5 4 3 2 1 0 1 1 2 2 3 4 4 4 3 3 4 4 5 5 5 5 6 6 5 4 3 3 3 2 1 1 0 0 1 1 2 2 2 1 1 1 1 1 1 2 2 2 2 3 3 3 4 5 5 6 6 6 7 7 7 8 8 8 9 9 9 9 10 10 10 10 10 10 11 11 11 12 12 13 13 13 14 14
6 5 4 3 2 1 0 1 1 2 2 3 4 4 4 3 3 4 4 5 5 5 5 6 6 5 4 4 3 3 2 1 1 0 0 0 1 1 1 2 2 1 1 2 2 2 2 2 2 3 3 4 4 4 5 5 6 6 6 7 7 7 8 8 9 9 10 10 10 10 11 11 11 11 11 12 12 12 12 13 13 13 14 14 15
7 6 5 3 2 1 1 1 1 2 2 3 4 4 4 3 3 4 4 5 5 5 6 6 5 5 4 3 3 2 2 1 1 0 0 0 0 0 1 1 1 2 2 2 2 2 2 2 3 3 3 3 4 4 5 5 5 5 5 6 6 7 7 8 8 9 9 10 11 11 12 12 12 12 12 12 12 12 13 13 13 13 14 15 15
7 6 5 4 2 2 1 1 2 2 2 3 3 4 4 3 4 4 4 5 5 5 6 6 5 5 4 3 2 2 2 1 1 1 0 1 1 0 1 1 1 2 2 2 2 2 2 2 3 3 3 3 3 4 4 4 5 5 5 6 6 6 7 7 8 8 9 10 10 11 11 12 12 12 12 12 13 13 13 13 13 14 14 15 15
8 7 5 4 3 2 2 2 2 2 2 3 3 3 3 3 3 3 4 4 5 5 5 6 5 5 4 3 2 2 2 2 1 1 0 1 1 0 0 1 1 2 2 2 2 2 2 2 3 3 3 3 3 3 4 4 5 5 6 6 6 7 7 8 8 8 9 9 10 10 11 11 12 13 13 13 13 13 13 13 13 14 14 14 15
8 7 6 5 4 3 2 2 2 2 2 2 3 3 3 3 3 3 4 4 5 5 5 6 6 5 3 3 2 2 2 2 1 1 1 1 1 0 0 1 1 1 2 2 2 2 2 2 2 3 3 4 4 4 4 4 5 5 6 7 7 7 8 8 8 9 9 10 10 10 11 11 11 12 12 13 13 13 13 13 13 14 14 14 14
9 8 7 6 5 4 3 3 3 2 2 3 3 3 3 2 2 3 3 4 4 5 6 6 5 4 3 3 3 2 2 2 1 2 1 1 1 0 0 1 1 1 2 2 2 2 2 3 3 3 4 4 4 5 5 5 6 6 7 7 8 8 9 9 9 9 10 10 10 10 10 11 11 11 11 12 13 13 14 14 14 14 14 14 14
10 9 8 7 5 5 4 4 3 3 3 3 3 3 2 2 2 2 3 3 4 5 5 5 5 4 4 4 3 3 2 2 2 2 1 1 1 0 0 1 1 1 2 2 2 2 2 3 3 3 3 4 4 5 5 6 6 7 7 8 8 9 9 9 10 10 10 10 10 10 10 10 11 11 11 12 12 13 14 14 14 14 14 14 14
11 10 9 8 6 6 6 5 4 4 3 4 3 3 2 1 1 2 2 3 4 5 5 5 4 4 4 4 4 4 3 2 2 1 1 1 1 0 1 1 1 1 2 2 2 2 2 2 3 3 4 4 4 5 5 6 6 6 7 7 8 9 9 10 10 10 11 11 11 11 11 11 11 11 12 12 13 13 14 14 15 15 15 15 15
12 11 10 9 8 7 7 6 6 5 4 4 4 3 2 1 1 1 2 2 3 4 4 4 4 4 3 3 4 4 3 2 1 1 1 1 1 1 1 1 2 2 2 2 2 2 2 3 3 4 4 5 5 5 5 6 6 6 6 7 8 8 9 9 10 10 10 11 11 11 12 12 12 12 13 13 13 13 14 14 15 16 16 16 16
12 12 11 10 9 8 7 7 7 6 5 5 5 4 2 1 1 1 1 2 2 3 3 3 3 3 3 3 3 3 3 2 2 2 2 2 2 2 2 2 2 3 3 3 4 3 3 3 4 4 5 5 5 5 6 6 6 6 6 7 7 8 8 9 9 10 10 10 11 11 12 12 12 13 13 13 14 14 14 15 15 16 16 17 17
13 13 12 11 10 9 8 8 7 7 7 6 6 4 3 2 2 2 2 2 2 3 2 2 3 3 3 3 3 3 2 2 2 2 2 2 2 2 3 3 3 4 4 4 5 5 5 5 5 5 5 6 6 6 6 6 7 7 7 7 8 8 8 9 9 10 10 10 11 11 12 12 13 13 14 14 14 15 15 15 16 16 17 17 18
14 13 13 12 11 10 9 9 8 8 8 7 6 5 4 4 3 3 3 2 2 2 1 1 2 3 3 3 3 3 3 2 2 2 2 2 3 3 3 3 4 5 5 5 6 6 6 6 6 6 6 7 7 7 7 7 7 8 8 8 8 9 9 9 9 10 10 10 11 11 12 12 13 14 14 15 15 16 16 16 16 17 17 17 18
14 14 14 13 12 11 11 10 9 9 9 8 7 6 5 5 4 4 4 3 2 1 0 0 1 2 2 3 3 3 3 3 3 2 2 3 3 4 3 3 4 5 5 6 6 6 7 7 7 8 8 8 8 8 7 8 8 8 9 9 9 10 10 10 10 10 10 11 11 12 12 13 14 14 15 16 16 16 17 17 17 17 17 18 18
15 14 14 14 13 12 12 11 10 10 10 9 8 7 6 6 5 5 4 3 3 2 1 1 0 1 2 2 3 3 3 3 3 3 3 3 3 4 4 4 4 4 5 5 6 6 7 8 8 8 8 8 8 8 8 9 9 9 10 10 10 11 11 11 11 11 11 12 12 13 13 14 15 16 16 17 18 18 18 18 18 18 18 19 19
15 15 15 14 14 13 13 12 11 11 11 10 10 9 8 7 6 6 5 4 4 3 2 1 1 0 1 2 3 3 3 3 4 3 3 3 4 4 4 4 5 5 5 6 6 7 7 8 8 8 8 8 8 9 9 9 10 10 11 11 11 11 11 12 12 12 12 13 14 15 15 16 17 17 18 19 20 20 21 21 21 21 20 20 20
16 16 15 15 14 14 13 13 12 12 12 11 11 10 9 8 8 7 6 6 5 4 3 2 1 1 1 2 3 3 4 3 3 4 3 3 4 5 5 5 6 5 5 6 7 7 7 7 7 8 8 8 9 9 10 10 10 11 11 12 12 12 13 13 13 13 14 14 15 16 17 18 18 19 20 21 21 22 22 23 23 23 23 23 22
16 16 16 16 15 15 14 14 13 13 13 13 12 11 11 10 9 8 8 7 6 5 4 3 3 2 2 2 3 3 4 4 4 4 4 4 5 5 5 5 6 6 5 6 6 7 7 6 7 7 8 9 9 10 10 11 11 11 12 13 13 13 14 14 15 15 15 16 17 18 18 19 20 21 22 22 23 24 24 25 25 25 26 25 25
17 17 17 17 17 16 16 15 14 14 14 14 13 13 12 11 10 10 9 8 7 7 5 4 4 3 3 3 3 4 4 4 4 5 5 5 5 5 5 6 6 6 6 6 6 6 7 7 7 7 8 9 9 10 11 11 11 12 12 13 13 13 14 15 16 16 16 17 18 19 20 21 22 23 23 24 25 26 26 27 27 27 28 28 27
18 17 17 17 18 17 17 17 16 15 15 15 15 14 13 12 12 11 10 10 9 8 7 6 5 4 4 4 4 4 4 4 5 5 5 6 6 6 6 6 6 6 7 7 7 7 7 8 8 8 9 10 10 11 11 11 12 12 13 13 14 14 14 15 16 17 17 18 19 20 21 22 23 24 25 26 27 28 28 28 29 29 29 29 29
19 18 18 18 18 18 18 18 18 17 16 16 16 16 15 14 13 13 12 11 10 9 8 7 6 6 5 5 5 5 5 5 5 6 6 6 7 7 7 7 7 7 7 8 8 8 8 9 9 9 10 10 11 11 12 12 12 13 14 14 14 15 16 16 17 17 17 18 20 21 23 24 26 27 28 28 29 30 30 30 30 30 30 30 30
20 19 19 18 18 18 19 19 19 18 18 17 17 17 16 16 15 14 13 13 12 10 10 9 8 8 7 7 6 6 6 6 7 7 8 8 8 8 8 8 8 8 8 8 9 9 9 10 10 10 11 11 11 12 12 13 13 14 14 15 15 16 17 17 17 17 18 19 21 23 25 26 28 29 30 31 31 31 31 31 30 30 30 29 29
21 20 20 20 19 19 19 20 20 20 19 19 18 18 18 17 16 15 15 15 13 12 11 10 10 9 9 9 8 8 7 8 8 9 9 10 9 9 9 9 9 8 8 9 10 10 10 11 11 11 11 12 12 13 13 14 14 15 15 16 16 17 18 18 18 18 19 21 22 24 26 28 30 31 32 32 32 32 32 31 31 30 30 29 29
22 22 21 21 21 20 20 20 21 21 21 20 20 19 19 19 18 17 17 16 15 14 13 12 12 11 11 11 10 10 9 9 9 10 10 10 10 9 9 9 9 10 10 10 10 11 11 11 11 12 12 12 13 14 14 15 15 15 16 16 17 18 18 19 19 19 21 22 24 26 28 30 31 32 33 33 33 32 31 31 31 30 30 30 29
23 23 23 22 22 21 21 21 21 22 22 22 21 21 21 20 19 18 18 18 17 16 14 14 13 13 12 12 12 11 11 10 10 10 10 10 10 10 10 10 10 11 11 11 11 11 12 12 12 12 13 13 14 14 15 15 15 16 16 17 18 19 19 19 20 21 22 24 26 27 29 31 32 33 33 33 33 32 31 31 30 30 30 30 30
24 24 24 23 23 23 23 22 22 23 23 23 23 23 22 22 21 20 19 19 19 17 17 16 15 14 14 14 13 13 12 12 11 11 11 11 11 11 11 11 11 11 12 12 12 12 12 12 13 13 13 14 14 15 15 16 16 17 17 18 19 19 20 20 21 22 23 25 27 28 30 31 32 33 33 33 33 32 32 31 31 30 30 30 31
25 25 25 25 24 24 24 24 24 24 24 24 24 24 24 24 23 22 21 20 20 19 18 18 17 16 16 15 15 14 14 13 13 12 12 12 12 12 12 12 13 13 12 13 13 13 13 13 13 14 14 14 15 15 16 16 17 18 18 19 20 20 20 21 22 23 23 26 28 29 31 32 32 32 32 33 33 32 32 31 31 30 30 30 30
25 25 25 25 25 25 25 25 25 25 25 25 25 26 26 25 25 24 23 22 21 20 20 20 19 18 18 17 16 16 16 15 14 13 13 13 13 13 13 13 14 14 13 13 14 14 14 14 15 15 15 15 16 16 17 17 18 18 19 20 20 20 21 22 23 24 25 27 29 30 31 32 32 32 32 33 33 33 32 31 30 30 30 30 30
25 25 25 25 25 25 26 26 26 25 25 26 27 27 27 27 27 26 24 24 23 22 21 21 21 20 20 19 18 17 17 17 16 15 14 14 14 14 15 15 15 14 14 14 14 15 15 15 16 16 16 17 17 17 18 18 19 19 20 20 21 21 21 22 23 25 26 28 29 30 31 32 32 32 32 33 33 32 32 31 31 30 30 30 30
24 24 24 24 24 25 25 26 26 26 26 27 27 28 28 28 28 27 26 25 24 23 23 23 22 22 22 21 20 19 19 18 17 17 16 15 15 15 16 16 15 15 14 14 15 15 15 16 16 17 17 18 18 19 19 19 20 20 21 21 21 21 21 22 24 25 27 28 29 30 30 31 32 32 32 33 33 32 32 31 30 30 30 29 29
24 23 23 23 23 24 25 26 26 26 26 27 28 29 29 30 29 29 28 27 26 25 24 24 24 24 23 23 22 21 20 20 19 18 17 16 16 16 17 16 16 16 15 15 16 16 16 16 17 18 18 18 19 19 19 20 20 21 21 21 21 21 22 23 24 26 27 28 29 30 30 31 32 32 32 32 32 31 30 30 30 29 28 28 28
23 23 23 23 23 23 24 25 26 26 27 27 28 29 30 30 30 30 29 29 28 27 26 26 25 25 25 24 23 23 22 21 21 20 19 18 17 17 17 16 16 16 16 16 16 16 17 17 18 18 19 19 20 20 20 20 20 21 20 20 21 22 23 24 25 26 27 28 28 29 30 31 32 31 31 31 30 29 29 29 28 27 27 27 28
23 23 23 23 23 23 24 25 26 27 27 27 28 29 30 31 31 31 30 30 29 29 28 27 27 27 26 26 25 24 23 23 22 22 21 20 19 18 18 17 17 17 17 17 18 18 18 18 18 19 19 20 20 20 21 21 21 21 20 21 21 22 23 24 25 26 26 27 28 29 31 31 31 30 30 30 29 28 28 27 27 27 27 28 29
25 24 24 24 24 24 24 25 26 26 27 28 29 29 31 31 31 31 31 31 30 30 30 29 28 28 27 27 26 26 25 24 24 23 22 21 21 20 19 19 19 19 19 19 20 19 19 19 19 19 19 20 20 20 21 21 21 20 20 21 21 22 23 24 25 26 26 27 28 30 31 30 29 29 29 29 28 27 27 27 27 28 29 30 30
26 26 25 25 25 25 26 26 26 27 27 28 29 29 30 31 32 32 31 31 31 31 31 30 30 29 28 28 28 27 26 26 26 25 24 23 22 22 21 21 21 21 21 21 21 20 19 19 19 19 20 20 20 20 21 21 21 20 20 21 21 22 23 24 25 25 26 27 28 29 30 29 28 28 28 28 27 27 27 27 28 29 29 30 30
28 27 27 27 27 27 27 27 27 28 28 28 29 30 30 31 33 33 32 32 32 32 32 31 31 30 30 29 29 28 28 27 27 26 25 25 24 23 23 23 23 23 23 23 23 22 21 20 20 20 20 20 20 20 20 20 21 21 21 21 21 22 22 23 24 25 26 27 28 28 28 28 27 27 28 27 27 27 27 27 28 29 29 29 28
29 28 28 28 27 27 28 27 27 28 29 29 29 30 31 32 33 34 34 33 33 33 33 32 32 31 31 30 30 29 29 29 28 27 26 25 25 24 24 24 24 24 24 24 24 23 22 21 21 22 21 21 20 20 20 20 21 21 21 21 21 22 23 24 25 26 27 27 26 27 27 27 27 27 27 27 26 27 27 28 28 29 28 27 27
30 29 28 28 28 27 28 27 27 28 29 29 29 30 31 32 33 34 34 34 34 34 34 33 33 33 32 31 31 30 30 30 30 29 27 26 25 25 25 25 25 25 25 25 24 24 23 23 23 22 22 21 20 20 20 20 21 21 21 21 21 22 23 24 25 26 26 24 24 26 27 27 26 27 27 27 26 27 27 28 28 28 27 27 26
30 29 28 28 28 28 28 28 29 29 29 30 30 30 31 32 33 34 35 35 35 35 35 35 34 34 34 33 32 32 31 31 31 30 29 28 26 26 26 26 26 26 26 25 25 25 24 24 23 23 22 21 20 20 20 21 21 21 20 21 21 22 23 23 24 24 24 23 23 25 25 26 26 26 26 26 26 27 27 28 27 26 26 27 26
30 30 30 29 29 29 29 30 30 30 30 30 31 32 32 32 33 34 35 35 35 35 35 36 36 36 36 35 34 33 33 33 32 32 31 30 28 27 27 26 26 26 26 26 25 25 25 24 23 22 21 21 20 21 21 21 21 21 21 21 21 22 22 22 22 23 23 24 24 24 25 26 26 26 26 26 27 27 27 27 27 26 27 27 27
31 31 30 30 29 29 29 30 30 31 31 31 31 32 33 34 34 35 35 36 36 36 36 36 36 37 37 37 36 35 34 34 33 33 33 32 30 29 28 28 28 27 27 26 25 25 25 24 23 22 22 21 21 21 21 21 21 21 21 21 21 21 21 21 22 22 23 24 23 23 24 26 26 26 26 26 26 26 26 26 26 27 27 27 27
31 30 30 30 30 30 30 31 31 31 32 32 32 33 34 34 35 35 36 37 38 37 36 36 37 37 38 38 38 38 36 35 35 35 35 34 32 30 29 29 29 29 28 26 25 24 25 24 24 23 23 22 22 22 22 21 21 21 21 21 21 21 21 21 21 22 22 23 22 22 24 25 25 25 26 26 25 25 26 26 26 26 27 27 27
Wind_Direction
132 127 124 120 112 106 100 92 86 78 71 61 50 41 35 31 24 21 22 21 17 12 12 15 18 18 18 17 18 20 17 18 23 35 55 62 64 82 103 110 124 140 151 158 154 155 160 162 167 176 185 187 186 193 201 208 218 227 234 237 237 237 238 242 245 248 253 256 258 261 264 264 266 268 269 270 272 273 273 274 275 278 281 282 285
135 132 128 124 116 110 101 92 86 75 64 51 41 35 30 25 19 17 16 14 9 5 6 7 7 8 9 9 8 7 8 12 19 38 57 61 61 72 95 110 123 134 144 161 163 163 170 172 172 180 192 197 199 201 204 211 223 236 247 252 246 241 243 248 251 254 257 259 261 263 265 266 268 269 270 270 271 271 271 272 273 275 278 280 283
143 140 135 130 123 116 104 92 81 68 54 42 35 28 21 16 13 11 8 5 0 359 359 357 357 359 359 2 3 1 3 6 12 39 57 56 58 68 83 98 114 122 130 158 172 175 176 175 178 191 207 213 219 226 227 232 243 251 260 271 257 242 243 250 254 258 261 262 263 265 266 267 269 269 270 269 269 270 271 272 272 274 276 278 281
151 147 143 136 128 121 106 87 68 54 42 34 26 20 16 12 8 4 1 359 356 356 354 350 351 349 347 353 357 356 357 359 8 40 56 52 55 67 78 90 104 116 122 147 175 185 186 185 193 210 228 233 237 248 251 252 257 257 258 264 259 248 249 255 260 265 267 266 266 267 269 270 271 270 270 270 269 269 270 270 271 272 274 277 279
157 154 151 141 132 123 101 76 54 40 30 25 20 17 14 9 5 0 358 357 354 354 351 350 350 343 338 342 345 345 348 351 7 44 52 46 51 62 79 97 103 110 124 139 171 193 202 206 212 225 240 247 247 258 264 260 258 260 260 265 265 262 263 265 270 274 274 273 272 270 272 274 273 273 273 272 272 271 270 270 269 271 272 275 278
164 161 157 149 140 127 97 66 43 28 18 18 18 16 11 5 1 357 356 355 352 350 349 350 350 345 336 335 337 336 340 348 8 45 47 41 47 55 64 95 101 89 102 128 162 196 211 217 223 233 239 246 252 261 266 262 263 266 266 269 271 268 267 268 272 277 279 281 279 275 274 276 277 277 277 276 275 274 273 272 270 270 271 273 276
173 170 167 164 153 134 90 49 29 16 11 12 11 8 3 0 359 356 354 352 350 350 350 349 348 349 343 337 335 330 334 349 25 47 46 40 43 43 44 68 95 75 62 58 69 206 223 226 233 241 246 253 259 264 270 267 265 270 271 270 273 273 272 272 273 276 280 283 284 280 278 277 279 279 280 279 278 277 276 275 273 271 270 271 273
182 181 178 177 171 152 71 21 10 8 8 7 4 359 356 358 358 356 354 351 350 351 352 351 350 352 349 340 336 332 335 349 64 54 38 34 36 35 43 53 67 58 37 32 21 344 297 249 245 251 256 264 268 269 275 272 268 272 275 273 274 275 276 277 276 276 279 282 283 282 280 279 279 280 280 281 281 281 279 278 276 274 273 272 272
189 188 187 187 184 175 272 352 360 5 6 3 2 359 356 358 357 354 354 353 353 355 355 358 0 358 349 341 342 346 345 352 76 63 31 31 36 36 45 51 53 41 9 1 347 331 319 291 268 266 272 280 280 278 280 279 275 278 278 276 276 276 276 277 278 279 280 282 282 282 282 281 281 280 279 281 282 282 282 281 279 277 275 274 274
192 192 192 192 188 182 222 339 353 359 358 359 2 360 356 357 352 350 353 355 359 360 1 4 6 6 359 350 351 355 357 28 58 56 36 33 34 35 41 41 36 27 4 348 336 327 316 302 286 277 286 293 290 288 288 286 283 282 282 280 280 280 278 277 278 279 280 281 281 281 282 282 283 282 280 281 282 282 282 282 281 280 279 277 276
195 195 195 193 189 190 238 308 332 346 351 354 359 358 353 349 343 345 352 358 2 4 6 8 7 7 7 6 5 359 5 42 46 350 221 26 21 26 32 31 22 7 353 341 330 325 314 305 299 289 291 292 288 291 294 293 290 287 287 285 285 285 284 282 281 281 281 280 279 280 280 281 283 283 282 282 282 282 281 281 281 281 281 280 279
199 198 197 196 196 208 252 286 310 331 341 348 353 352 348 343 340 347 357 3 6 10 12 9 5 4 4 8 11 5 12 31 18 325 228 208 184 22 18 19 15 1 351 339 323 322 315 306 304 300 299 296 289 292 294 295 295 295 295 292 290 291 289 288 287 286 286 284 283 282 281 280 281 282 284 284 284 284 283 281 280 279 280 280 281
204 202 200 202 210 229 257 279 300 317 331 338 343 346 345 345 348 358 8 10 11 16 17 13 9 6 5 9 12 11 16 12 352 327 231 198 187 39 1 359 3 6 359 350 336 325 317 310 308 306 306 306 302 300 299 299 300 299 301 299 297 297 295 295 294 293 292 292 291 288 286 284 283 282 283 284 285 286 285 284 282 281 280 280 280
208 206 206 211 220 238 259 277 294 305 320 331 336 341 343 347 356 8 18 20 19 21 22 16 12 12 17 23 25 21 15 1 352 356 179 179 184 201 333 348 358 5 2 1 0 341 322 314 310 307 305 305 305 304 304 304 302 300 301 301 301 300 299 300 300 298 297 296 295 294 293 291 289 286 285 285 286 287 287 286 286 284 282 281 280
210 209 212 220 228 242 260 273 285 293 309 326 333 337 341 348 -0 16 24 27 27 25 21 13 12 20 28 31 33 33 22 9 16 57 109 151 168 183 316 342 355 353 344 348 352 346 335 327 318 312 306 302 301 302 304 304 303 303 303 302 302 301 300 300 300 299 299 298 297 296 296 295 294 293 291 289 288 287 287 287 287 286 285 283 282
213 213 217 224 231 242 258 268 274 281 298 317 325 331 341 352 8 24 27 27 30 28 18 10 16 27 32 35 37 37 44 55 70 78 93 123 144 141 358 344 356 343 330 330 333 336 336 333 328 319 313 308 304 302 303 304 304 305 305 305 303 301 300 299 299 298 298 298 297 297 296 296 296 296 296 295 293 290 289 289 288 287 286 285 284
215 217 220 225 232 241 251 260 265 270 283 303 314 322 333 354 16 27 24 19 24 24 14 11 20 26 27 35 39 37 51 76 86 82 78 86 102 92 11 339 346 337 324 325 328 329 329 329 330 326 320 318 314 310 307 307 307 306 306 305 304 303 301 300 299 298 299 299 299 298 297 296 296 295 296 297 297 295 293 290 289 289 288 287 286
218 220 223 227 233 240 247 253 259 265 274 289 300 307 315 344 15 22 16 10 15 17 13 16 25 27 26 28 29 34 44 61 73 72 63 59 49 4 328 316 321 316 312 320 324 323 322 325 330 328 324 323 320 317 312 310 310 308 308 308 306 305 303 301 300 300 300 300 300 299 298 297 296 295 296 297 297 296 295 292 290 289 289 288 287
221 223 226 229 233 239 244 248 252 258 266 277 286 291 294 308 343 358 3 1 5 9 13 23 30 29 30 25 24 31 35 37 39 41 34 21 5 340 317 308 311 306 306 310 312 319 323 322 325 325 322 321 320 319 315 314 314 313 313 313 311 310 307 305 303 302 301 300 300 299 299 299 298 298 297 297 296 295 294 293 292 290 288 287 287
224 226 228 230 234 240 243 246 248 251 258 268 277 280 272 268 279 301 331 342 350 -0 11 29 34 32 35 30 26 27 23 21 14 6 2 355 349 332 319 316 313 307 304 305 306 312 315 315 319 320 319 317 316 315 314 313 314 315 314 314 313 313 311 310 308 306 305 303 302 301 300 300 299 299 298 298 297 295 294 293 292 291 289 287 285
225 227 230 232 235 240 243 245 245 247 254 262 270 269 256 246 247 257 278 303 325 347 6 32 36 39 44 36 28 25 15 5 353 342 341 341 342 334 322 315 310 306 303 301 302 303 303 306 311 313 314 314 312 311 311 311 312 313 313 312 313 313 313 311 310 308 306 304 303 302 302 301 301 300 300 300 299 298 297 295 294 293 291 289 287
226 228 231 233 235 239 243 245 244 246 251 256 261 259 248 236 236 244 250 269 300 331 13 49 41 41 47 41 31 25 16 4 348 333 330 330 326 321 316 310 306 303 301 299 297 296 297 300 303 305 307 308 308 307 309 308 309 310 310 309 310 311 310 310 309 308 307 306 305 305 305 305 305 305 304 303 302 301 299 298 297 295 293 291 289
229 230 231 234 236 238 242 244 244 246 249 252 253 251 244 233 231 236 239 252 276 287 246 90 49 40 42 41 32 23 18 11 0 347 334 327 323 318 320 326 315 306 303 301 297 294 293 293 296 298 300 301 301 302 304 305 305 306 306 306 307 307 307 308 309 309 310 310 310 310 309 309 309 308 307 306 304 302 301 299 298 296 295 293 291
233 233 233 235 236 237 240 243 244 245 248 249 247 244 240 232 229 231 231 241 254 245 216 209 66 32 27 29 24 18 16 11 5 359 341 332 331 322 320 322 314 306 305 304 301 297 294 292 291 291 292 293 295 297 300 302 302 301 303 303 303 304 306 306 308 309 311 311 310 310 309 309 308 307 306 305 304 303 302 300 299 297 296 294 293
233 235 236 237 238 238 239 240 242 244 246 245 243 239 236 232 229 228 230 236 239 229 219 224 236 7 11 10 8 6 7 3 355 355 349 341 335 326 322 316 308 306 307 306 305 303 299 294 291 290 289 291 292 294 296 300 299 298 301 302 301 301 303 303 305 306 307 308 308 308 308 307 307 305 304 303 302 302 301 300 299 297 295 294 293
232 234 236 238 239 239 239 240 241 242 243 242 239 236 234 232 230 229 232 236 233 226 225 233 243 278 335 347 349 348 351 349 338 335 336 335 331 328 328 322 313 310 308 306 306 305 303 300 296 294 292 292 291 292 294 297 299 299 301 303 301 299 299 300 301 301 303 305 306 306 306 306 305 305 303 302 301 300 299 298 297 296 295 292 291
233 234 235 237 238 239 239 239 240 241 241 240 237 235 232 231 231 231 233 235 232 230 234 239 249 263 289 313 330 336 337 337 328 321 319 321 323 324 325 323 319 315 312 307 305 304 304 303 301 299 297 295 293 293 294 297 299 300 302 303 302 299 298 298 299 300 302 303 304 305 306 305 305 304 303 302 300 299 298 297 295 294 293 292 290
235 235 236 236 237 238 239 239 240 241 241 238 235 234 231 231 231 232 233 234 232 234 239 244 251 261 277 293 308 322 328 329 326 321 316 315 316 317 317 317 317 318 316 311 306 304 305 304 304 303 302 301 299 297 297 298 299 301 303 303 304 303 300 300 300 301 302 302 304 305 305 306 305 305 303 302 300 299 297 296 295 294 292 291 290
236 237 237 237 237 238 239 239 240 241 240 238 235 233 232 231 232 232 234 234 234 236 240 246 252 259 271 281 294 309 317 320 322 322 317 312 310 310 310 310 311 314 316 313 307 305 306 307 306 305 304 303 302 300 299 299 300 301 302 303 304 304 303 302 301 301 301 302 303 304 305 306 306 305 303 302 300 299 298 297 295 294 292 290 289
237 238 238 238 238 238 239 239 239 240 240 238 235 233 233 233 232 233 234 233 234 236 238 244 250 255 262 270 283 298 306 310 316 319 317 313 309 307 306 305 303 304 309 311 307 303 302 303 304 307 307 304 303 301 300 300 301 301 301 302 303 303 303 302 302 301 301 301 302 303 304 305 305 304 303 302 301 300 299 298 296 294 293 291 289
238 238 239 239 239 239 239 240 239 239 239 238 236 234 233 234 234 234 234 232 234 235 237 241 248 253 256 262 273 287 297 303 309 312 313 312 309 305 303 301 298 298 301 307 307 303 300 300 302 305 306 303 301 301 300 300 300 300 300 301 301 302 302 303 302 301 301 301 303 304 305 306 306 305 304 303 302 301 300 298 297 295 293 291 289
239 239 239 240 240 240 240 240 240 239 238 237 237 234 234 235 236 235 233 232 233 235 238 241 246 251 254 259 268 278 287 294 301 307 310 310 307 303 300 298 296 295 296 301 303 303 300 300 301 302 302 302 300 299 298 298 298 298 298 300 301 301 302 302 301 300 301 303 304 306 307 307 307 306 305 304 302 301 300 299 297 296 294 292 290
240 240 240 240 241 241 241 241 240 240 238 236 236 235 235 235 236 236 234 233 234 236 238 241 245 250 254 258 265 272 279 286 294 302 306 307 304 300 297 296 295 295 295 297 299 301 300 299 300 301 301 302 301 299 296 296 296 297 297 299 300 300 302 302 301 299 301 304 307 308 309 309 308 307 306 305 304 303 301 299 297 295 294 292 290
241 241 242 242 241 241 241 242 241 240 238 236 236 235 235 235 235 236 235 233 234 236 240 243 245 250 255 258 263 270 276 281 288 295 301 303 301 298 295 293 293 294 295 296 297 298 298 297 297 298 299 301 302 300 297 296 296 296 297 298 299 301 302 302 302 301 302 305 308 309 309 310 309 308 308 307 306 305 303 301 298 296 294 291 289
242 243 243 243 243 242 242 242 242 241 240 237 236 236 236 235 235 236 236 235 235 237 240 244 246 249 253 257 262 268 273 277 282 289 296 298 297 295 293 292 290 290 293 295 295 295 296 295 295 296 298 300 301 300 299 297 296 296 297 298 300 301 301 301 303 303 303 306 309 310 311 311 310 309 308 308 307 306 305 303 301 298 295 293 290
243 244 244 244 244 243 242 242 242 242 241 239 237 236 236 236 235 236 237 237 237 238 240 243 246 249 252 256 261 265 270 273 277 284 291 294 293 292 292 293 292 290 290 293 294 294 295 295 295 296 298 300 301 300 299 298 297 297 298 298 299 301 301 302 304 305 306 308 310 311 312 312 311 310 309 309 308 307 306 305 303 301 298 295 293
243 244 244 244 244 244 243 243 243 243 242 240 238 237 236 237 236 236 237 238 238 239 240 243 246 249 252 255 259 263 266 270 274 280 285 288 289 289 290 294 295 292 290 291 294 294 293 293 294 295 297 299 300 300 299 298 298 298 298 299 300 301 301 303 305 306 308 310 311 312 313 313 312 311 311 310 309 309 308 306 304 302 300 297 295
242 243 244 244 244 243 243 243 243 243 243 242 240 238 237 237 237 237 238 239 240 240 241 242 245 248 251 254 258 261 263 267 271 276 280 282 284 286 289 293 293 291 289 290 294 294 292 292 293 295 296 297 298 299 299 298 298 298 299 301 301 300 301 303 306 308 309 311 312 313 315 315 314 313 312 311 310 310 309 307 306 303 301 299 297
241 242 243 244 244 243 243 243 244 243 243 242 241 239 237 238 238 239 239 240 241 242 242 243 245 247 250 253 257 260 262 265 269 273 276 279 282 284 287 290 290 289 289 290 293 294 293 292 292 293 294 295 296 297 297 298 298 298 299 300 301 300 301 303 306 309 311 312 314 315 315 316 316 314 313 312 311 310 310 308 307 305 303 301 299
242 243 243 245 245 245 245 244 244 244 243 242 241 239 238 238 239 240 240 241 242 243 243 243 245 247 249 252 255 258 261 263 267 270 273 277 281 284 285 286 287 287 288 291 293 292 292 291 291 292 293 294 295 296 297 297 298 298 299 299 300 301 303 305 307 309 312 313 315 317 316 317 317 316 314 313 312 311 310 309 308 307 306 305 303
243 244 245 246 246 246 246 245 244 244 244 243 242 240 239 239 240 241 241 242 242 244 244 245 245 247 249 251 254 256 259 262 264 267 270 274 279 284 284 283 284 286 288 293 295 293 292 291 290 291 292 293 294 295 295 296 297 298 299 299 299 301 303 306 308 310 312 314 316 318 318 318 318 316 315 314 313 312 312 311 311 310 308 307 305
243 245 246 247 247 247 247 246 246 246 246 245 243 242 241 240 240 241 242 243 243 244 246 246 246 247 249 252 254 255 257 260 262 265 268 271 276 280 281 281 282 284 286 292 295 294 292 291 290 290 291 291 293 293 294 295 296 297 298 299 299 301 304 306 308 311 313 315 317 318 318 319 318 317 317 316 315 314 314 314 313 312 310 309 307
244 246 247 248 248 249 248 248 247 247 247 246 244 243 242 241 241 242 243 244 244 245 247 248 248 249 250 252 254 256 257 259 261 264 266 269 272 275 278 279 280 281 284 290 294 292 290 290 291 290 290 290 292 293 294 295 295 296 297 298 299 301 304 306 309 312 314 316 317 318 319 320 320 319 319 318 317 316 316 315 314 313 312 310 309
245 247 248 249 250 250 250 250 249 249 249 247 245 244 243 241 241 242 243 245 245 246 248 249 250 250 251 252 254 256 257 258 260 263 265 267 270 272 275 277 279 280 283 288 292 292 289 289 291 290 290 290 291 292 293 294 294 295 296 297 299 301 303 306 309 312 314 316 318 319 321 322 321 321 320 319 318 318 317 316 315 315 314 313 311
246 248 249 250 251 251 251 251 251 251 250 249 247 245 244 242 241 242 244 245 246 247 248 250 251 251 252 253 254 256 258 258 259 261 264 266 268 269 272 276 279 280 282 286 289 290 289 290 290 290 290 290 290 291 292 292 293 293 294 295 297 299 302 306 309 312 314 316 318 320 322 323 323 322 321 321 320 319 318 317 317 317 317 315 314
247 248 249 250 251 251 251 252 252 252 252 251 248 246 245 244 243 243 244 246 247 248 248 250 251 251 252 253 254 256 258 259 259 261 263 264 266 267 269 273 277 279 281 284 285 286 287 289 290 290 289 289 290 290 291 291 292 293 293 295 296 299 302 306 310 313 314 316 318 321 323 324 325 323 322 322 321 320 319 318 318 319 319 318 317
248 249 249 250 251 251 251 252 253 253 253 252 250 248 247 246 245 245 245 246 248 248 249 250 251 251 252 253 254 255 257 258 259 259 262 263 264 265 267 271 274 277 280 282 283 282 284 287 289 290 288 288 288 289 290 290 291 292 293 294 296 299 303 306 310 313 315 315 317 320 323 325 325 324 323 323 322 321 320 320 319 320 320 320 319
249 250 251 252 252 252 253 253 254 254 254 252 251 250 249 247 247 247 247 247 248 249 249 250 251 252 252 253 253 255 256 258 258 258 260 262 263 264 266 269 272 275 278 280 281 280 281 284 288 289 287 286 286 287 289 290 291 292 292 293 295 298 302 306 310 314 316 316 317 321 323 325 326 325 323 323 323 322 322 322 321 321 321 322 321
249 251 252 252 253 253 254 254 255 255 255 254 252 251 250 248 248 248 248 249 250 250 250 250 251 252 253 252 253 254 256 257 258 258 259 261 262 263 264 267 271 274 277 279 280 280 280 283 286 287 286 284 284 285 288 289 289 290 290 292 294 297 300 305 309 312 315 316 318 321 324 325 326 326 324 324 324 323 323 324 323 322 322 322 321
250 251 252 252 254 256 256 255 256 256 257 255 253 251 251 250 249 250 250 250 251 252 251 251 251 252 253 253 252 254 256 257 256 256 257 259 262 263 263 266 269 272 274 276 279 280 280 281 284 284 283 282 282 284 286 287 287 288 288 290 293 295 299 304 308 311 314 316 318 319 322 325 327 326 326 325 324 324 325 325 325 324 323 323 321
251 251 252 253 255 257 258 258 258 257 257 257 254 253 252 251 250 251 252 252 252 253 252 252 252 252 253 254 253 253 255 256 256 256 256 258 261 263 263 265 267 269 270 272 276 279 278 278 280 281 280 280 281 282 283 285 285 285 286 288 291 294 299 303 307 311 314 316 318 320 322 325 327 327 327 326 325 325 326 326 326 325 325 324 323